Location: ??????
(55.2000°N, 38.3000°E)
Time: 18:20:18
(UTC+00:00)

Cosmos 1624 Rocket - Pass Details

Date: 15 November 2025
Orbit: 752 x 779 km, 74.0° (Epoch: 14 December)

Event Time Altitude Azimuth Distance (km) Brightness Sun altitude
Rises 02:54:41 0° 209° (SSW) 3,197 7.0 -17.5°
Reaches altitude 10° 02:57:03 10° 211° (SSW) 2,275 6.2 -17.1°
Maximum altitude 03:02:12 80° 298° (WNW) 773 3.9 -16.4°
Drops below altitude 10° 03:07:25 10° 26° (NNE) 2,293 6.7 -15.7°
Sets 03:09:48 0° 28° (NNE) 3,224 7.5 -15.3°
